#timestamp,LO_Frequency,Hit,StdDev 
1605297615.6,286047002.7,Y
1605297635.4,286047000.3,P
1605297655.2,286047002.3,P
1605297675.1,286047001.8,N
1605297676.0,286047001.8,N
1605297695.8,286047000.3,N
1605297715.7,286047001.2,N
1605297735.5,286047002.2,N
1605297755.3,286047005.8,Y
1605297775.2,286047001.9,P
1605297795.0,286047002.8,P
1605297795.9,286047002.8,P
1605297815.7,286046998.6,N
1605297835.6,286047001.0,N
1605297855.4,286047000.8,N
1605297875.3,286046998.4,N
1605297895.1,286047001.8,N
1605297896.0,286047001.8,N
1605297915.8,286046999.7,N
1605297935.7,286046999.8,N
1605297955.5,286047000.7,N
1605297975.3,286046998.6,N
1605297995.2,286047002.8,N
1605298015.0,286047000.1,N
1605298015.9,286047000.1,N
1605298035.8,286046999.7,N
1605298055.6,286047000.5,N
1605298075.4,286047000.7,N
1605298095.3,286047000.5,N
1605298115.1,286047002.3,N
1605298135.8,286046999.0,N
1605298155.7,286046998.7,N
1605298175.5,286046997.2,N
1605298195.4,286046997.1,N
1605298215.2,286046999.4,N
1605298235.0,286047000.9,N
1605298235.9,286047000.9,N
1605298255.8,286046999.4,N
1605298275.6,286046997.4,N
1605298295.4,286046998.5,N
1605298315.3,286046995.4,N
1605298335.1,286046997.1,N
1605298355.9,286046997.4,N
1605298375.7,286046999.6,N
1605298395.5,286046997.2,N
1605298415.4,286046999.2,N
1605298435.2,286046996.7,N
1605298455.0,286046997.2,N
1605298456.0,286046997.2,N
1605298475.8,286046997.4,N
1605298495.6,286046999.4,N
1605298515.5,286046998.4,N
1605298535.3,286046999.5,N
1605298555.1,286046998.5,N
1605298575.9,286047000.4,N
1605298595.7,286046998.5,N
1605298615.6,286046999.3,N
1605298635.4,286047001.1,N
1605298655.2,286046998.4,N
1605298675.1,286046997.5,N
1605298676.0,286046997.5,N
1605298695.8,286046999.2,N
1605298715.6,286046997.6,N
1605298735.5,286046995.1,Y
1605298755.3,286046999.8,P
1605298775.2,286047001.9,N
1605298795.9,286046998.4,N
1605298815.7,286047001.2,N
1605298835.6,286046999.6,N
1605298855.4,286046995.7,Y
1605298875.3,286046996.3,P
1605298895.1,286046993.3,P
1605298896.0,286046993.3,N
1605298915.8,286046995.4,N
1605298935.7,286046996.8,N
1605298955.5,286046998.4,N
1605298975.3,286047001.2,N
1605298995.2,286047001.2,N
1605299015.0,286046998.7,N
1605299015.9,286046998.7,N
1605299035.8,286047000.8,N
1605299055.6,286046998.2,N
1605299075.4,286046998.8,N
1605299095.3,286046996.6,N
1605299115.1,286046998.1,N
1605299135.8,286047000.6,N
1605299155.7,286047001.2,N
1605299175.5,286046998.2,N
1605299195.4,286047000.9,N
1605299215.2,286046999.9,N
1605299235.0,286047003.9,N
1605299235.9,286047003.9,N
1605299255.8,286047000.0,N
1605299275.6,286046999.7,N
1605299295.4,286046999.8,N
1605299315.3,286047000.3,N
1605299335.1,286047002.7,N
1605299355.9,286046998.8,N
1605299375.7,286047000.2,N
1605299395.5,286047000.5,N
1605299415.4,286047000.7,N
1605299435.2,286046998.6,N
1605299455.0,286047000.2,N
1605299455.9,286047000.2,N
1605299475.8,286046998.9,N
1605299495.6,286046998.8,N
1605299515.5,286047000.2,N
1605299535.3,286046999.5,N
1605299555.1,286046996.9,N
1605299575.9,286046997.2,N
1605299595.7,286046997.1,N
1605299615.5,286046997.9,N
1605299635.4,286046997.0,N
1605299655.2,286047000.7,N
1605299675.0,286046999.1,N
1605299676.0,286046999.1,N
1605299695.8,286046998.4,N
1605299715.6,286046997.0,N
1605299735.5,286046995.2,N
1605299755.3,286046997.7,N
1605299775.1,286046997.0,N
1605299795.9,286046995.4,N
1605299815.7,286046993.8,Y
1605299835.6,286046995.1,P
1605299855.4,286046997.7,N
1605299875.2,286046995.8,N
1605299895.1,286046994.9,Y
1605299896.0,286046994.9,P
1605299915.8,286046999.1,N
1605299935.6,286046999.3,N
1605299955.5,286046998.2,N
1605299975.3,286047000.0,N
1605299995.2,286047002.1,N
1605300015.9,286047000.3,N
1605300035.7,286047002.8,N
1605300055.6,286047001.2,N
1605300075.4,286047000.7,N
1605300095.2,286047002.1,N
1605300115.1,286047000.9,N
1605300116.0,286047000.9,N
1605300135.8,286047002.7,N
1605300155.7,286046998.5,N
1605300175.5,286047002.8,N
1605300195.3,286047002.6,N
1605300215.2,286047002.2,N
1605300235.0,286047003.8,N
1605300235.9,286047003.8,N
1605300255.7,286047004.4,N
1605300275.6,286047001.7,N
1605300295.4,286047002.5,N
1605300315.3,286046999.9,N
1605300335.1,286047000.2,N
1605300336.0,286047000.2,N
1605300355.8,286047002.5,N
1605300375.7,286047002.4,N
1605300395.5,286046998.4,N
1605300415.3,286047000.6,N
1605300435.2,286047004.3,N
1605300455.0,286046999.8,N
1605300455.9,286046999.8,N
1605300475.8,286046999.8,N
1605300495.6,286047002.3,N
1605300515.4,286047000.9,N
1605300535.3,286046999.0,N
1605300555.1,286046998.1,N
1605300575.9,286047002.3,N
1605300595.7,286047003.8,N
1605300615.5,286047002.6,N
1605300635.4,286047004.1,N
1605300655.2,286047001.9,N
1605300675.0,286046998.3,N
1605300675.9,286046998.3,N
1605300695.8,286047002.7,N
1605300715.6,286047000.2,N
1605300735.5,286047000.8,N
1605300755.3,286046998.3,N
1605300775.1,286046998.7,N
1605300795.9,286046998.7,N
1605300815.7,286046996.5,N
1605300835.5,286046998.1,N
1605300855.4,286047000.0,N
1605300875.2,286047001.0,N
1605300895.1,286046998.5,N
1605300896.0,286046998.5,N
1605300915.8,286046998.6,N
1605300935.6,286047000.5,N
1605300955.5,286047001.2,N
1605300975.3,286046998.5,N
1605300995.1,286046998.6,N
1605301015.9,286047000.0,N
1605301035.7,286047004.1,N
1605301055.6,286047001.6,N
1605301075.4,286046999.8,N
1605301095.2,286047002.4,N
1605301115.1,286047002.8,N
1605301116.0,286047002.8,N
1605301135.8,286047001.1,N
1605301155.6,286046999.1,N
1605301175.5,286046999.0,N
1605301195.3,286046998.1,N
